This is the latest recevied weather packets stored in our database for station/object KC5TIL-3. If no packets are shown the sender has not sent any weather packets the latest 10 day(s).
| Time | Temp. | Humidity | Pressure | Rain* | Wind** | Luminosity | Snow |
|---|---|---|---|---|---|---|---|
| 1777035455 | 23.33° C | 66% | 1002.8 hPa | 0 mm | 3.58 m/s, 196° | - | - |
| 1777035154 | 23.33° C | 66% | 1002.8 hPa | 0 mm | 3.58 m/s, 215° | - | - |
| 1777034856 | 23.33° C | 66% | 1002.8 hPa | 0 mm | 2.68 m/s, 241° | - | - |
| 1777034558 | 23.33° C | 65% | 1002.8 hPa | 0 mm | 3.13 m/s, 207° | - | - |
| 1777034257 | 23.33° C | 65% | 1002.8 hPa | 0 mm | 2.68 m/s, 208° | - | - |
| 1777033954 | 23.33° C | 65% | 1002.8 hPa | 0 mm | 3.13 m/s, 212° | - | - |
| 1777033656 | 23.33° C | 64% | 1002.8 hPa | 0 mm | 3.13 m/s, 135° | - | - |
| 1777033355 | 23.33° C | 64% | 1002.8 hPa | 0 mm | 2.68 m/s, 212° | - | - |
| 1777033057 | 23.33° C | 63% | 1002.8 hPa | 0 mm | 3.58 m/s, 190° | - | - |
| 1777032758 | 23.33° C | 63% | 1002.8 hPa | 0 mm | 3.13 m/s, 197° | - | - |
| 1777032457 | 23.33° C | 62% | 1002.8 hPa | 0 mm | 4.47 m/s, 174° | - | - |
| 1777032159 | 23.33° C | 63% | 1002.8 hPa | 0 mm | 2.68 m/s, 139° | - | - |
| 1777031856 | 23.33° C | 62% | 1002.8 hPa | 0 mm | 3.13 m/s, 222° | - | - |
| 1777031555 | 23.33° C | 62% | 1002.8 hPa | 0 mm | 3.58 m/s, 215° | - | - |
| 1777031256 | 23.33° C | 62% | 1001.8 hPa | 0 mm | 3.13 m/s, 221° | - | - |
| 1777030958 | 23.33° C | 63% | 1001.8 hPa | 0 mm | 4.47 m/s, 170° | - | - |
| 1777030657 | 22.78° C | 63% | 1001.8 hPa | 0 mm | 3.58 m/s, 127° | - | - |
| 1777030359 | 22.78° C | 62% | 1002.8 hPa | 0 mm | 4.02 m/s, 190° | - | - |
| 1777030061 | 22.78° C | 62% | 1002.8 hPa | 0 mm | 4.02 m/s, 209° | - | - |
| 1777029760 | 22.78° C | 62% | 1002.8 hPa | 0 mm | 3.58 m/s, 229° | - | - |
| 1777029461 | 22.78° C | 61% | 1002.8 hPa | 0 mm | 3.58 m/s, 215° | - | - |
| 1777029163 | 22.78° C | 61% | 1002.8 hPa | 0 mm | 4.02 m/s, 165° | - | - |
| 1777028863 | 22.78° C | 61% | 1002.8 hPa | 0 mm | 3.13 m/s, 205° | - | - |
| 1777028560 | 22.78° C | 61% | 1002.8 hPa | 0 mm | 2.68 m/s, 196° | - | - |
| 1777028261 | 22.78° C | 60% | 1002.8 hPa | 0 mm | 3.58 m/s, 157° | - | - |
* Rain latest hour (hover to see other rain measurements)
** Current wind speed in m/s (hover to see current wind gust speed)